星链-36548(STARLINK-36548)

导读 | 豆包AI

STARLINK-36548是美国SpaceX星链(Starlink)卫星互联网星座的一员,于2026年1月30日发射升空,部署在近地轨道(LEO)。作为星链规模持续扩张的组成部分,它将与星座中其他卫星协同,为全球偏远、基础设施匮乏地区提供高速低延迟的宽带互联网接入服务,助力缩小数字鸿沟,支撑远程通信、跨境联网等多元场景的互联需求。

基本信息
目录编号:
67617
目录名称:
STARLINK-36548
国际标识:
2026-020A
轨道中心:
EARTH
卫星名称:
星链-36548
卫星全名:
星链-36548(STARLINK-36548)
卫星状态:
在轨 (已飞行43 天)
发射日期:
2026-01-30 UTC
国别 :
美国 (US)
星等 :
--
轨道信息
数据来源 国际轨道数据
星历时间: 2026-03-13T22:00:01+0800
14小时前
查看轨道信息
半长轴: 6793.277km
偏心率: 0.0001675
轨道倾角: 43.000°
近地点辐角 287.966°
升交点赤经 119.367°
平近点角 341.241°
近地点: 414.002km
远地点: 416.278km
周期: 92.871分钟
每日圈数: 15.505432
详细信息
固有亮度:
5
最大亮度:
2.5
卫星平台:
Starlink V1.0
覆盖范围:
全球
运营商:
太空探索技术公司
运营商所在国:
美国
制造商(研发单位):
太空探索技术公司
制造商所在国:
美国
使用方式:
暂无
卫星简介
Starlink 计划是 SpaceX 推出的全球卫星互联网项目,通过发射低轨道卫星,为全球尤其是偏远地区提供高速、低延迟的互联网服务。自 2019 年起,Starlink 已部署数千颗卫星,旨在缩小全球数字鸿沟,推动互联网普及。该项目还为军事、航空等行业提供通信支持,带来广泛经济效益。
2D轨道图
3D轨道图
轨道高度分析图
轨道倾角分析图
轨道综合分析图
查看轨道综合分析图